TimeCDT,TemperatureF,Dew PointF,Humidity,Sea Level PressureIn,VisibilityMPH,Wind Direction,Wind SpeedMPH,Gust SpeedMPH,PrecipitationIn,Events,Conditions,WindDirDegrees,DateUTC
12:53 AM,68.0,64.9,90,30.09,10.0,SE,8.1,-,0.03,Rain,Light Rain,140,2013-07-17 05:53:00
1:53 AM,68.0,66.0,93,30.08,10.0,ESE,5.8,-,0.01,Rain,Light Rain,120,2013-07-17 06:53:00
2:53 AM,66.9,64.9,93,30.08,10.0,ESE,5.8,-,0.01,,Overcast,110,2013-07-17 07:53:00
3:35 AM,68.0,66.2,94,30.18,10.0,East,3.5,-,0.01,,Overcast,80,2013-07-17 08:35:00
3:53 AM,68.0,66.0,93,30.06,10.0,East,3.5,-,0.01,,Overcast,80,2013-07-17 08:53:00
4:17 AM,68.0,66.2,94,30.18,10.0,East,3.5,-,0.00,Rain,Light Rain,80,2013-07-17 09:17:00
4:27 AM,68.0,66.2,94,30.18,10.0,East,3.5,-,0.00,,Overcast,80,2013-07-17 09:27:00
4:53 AM,69.1,66.9,93,30.06,10.0,East,6.9,-,0.01,Rain,Light Rain,100,2013-07-17 09:53:00
5:50 AM,68.0,66.2,94,30.19,10.0,ESE,6.9,-,0.01,Rain,Light Rain,110,2013-07-17 10:50:00
5:53 AM,68.0,66.9,96,30.08,10.0,ESE,9.2,-,0.01,Rain,Light Rain,110,2013-07-17 10:53:00
6:53 AM,68.0,66.0,93,30.09,10.0,ESE,9.2,-,0.03,Rain,Light Rain,110,2013-07-17 11:53:00
7:08 AM,68.0,66.2,94,30.20,10.0,ESE,10.4,18.4,0.01,Rain,Light Rain,110,2013-07-17 12:08:00
7:26 AM,66.2,64.4,94,30.19,10.0,ESE,10.4,-,0.01,Rain,Light Rain,110,2013-07-17 12:26:00
7:53 AM,66.9,64.9,93,30.09,10.0,East,6.9,-,0.01,Rain,Light Rain,100,2013-07-17 12:53:00
8:13 AM,68.0,66.2,94,30.21,10.0,ESE,8.1,-,0.01,Rain,Light Rain,120,2013-07-17 13:13:00
8:53 AM,69.1,66.9,93,30.12,10.0,ESE,8.1,-,0.01,,Overcast,110,2013-07-17 13:53:00
9:53 AM,68.0,66.9,96,30.14,10.0,ESE,8.1,-,0.02,Rain,Light Rain,110,2013-07-17 14:53:00
10:53 AM,69.1,66.0,90,30.15,10.0,East,10.4,-,0.01,Rain,Light Rain,100,2013-07-17 15:53:00
11:20 AM,69.8,66.2,88,30.26,10.0,East,9.2,-,0.00,Rain,Light Rain,100,2013-07-17 16:20:00
11:53 AM,71.1,66.9,87,30.15,10.0,ESE,11.5,-,0.01,Rain,Light Rain,110,2013-07-17 16:53:00
12:08 PM,71.6,66.2,83,30.25,10.0,ESE,11.5,-,0.01,Rain,Light Rain,120,2013-07-17 17:08:00
12:43 PM,71.6,66.2,83,30.25,10.0,East,10.4,-,0.01,Rain,Light Rain,100,2013-07-17 17:43:00
12:53 PM,72.0,66.0,81,30.14,10.0,ESE,10.4,-,0.01,,Mostly Cloudy,110,2013-07-17 17:53:00
1:03 PM,71.6,66.2,83,30.24,10.0,ESE,8.1,-,N/A,,Mostly Cloudy,120,2013-07-17 18:03:00
1:53 PM,70.0,66.9,90,30.13,10.0,East,8.1,-,0.00,Rain,Light Rain,100,2013-07-17 18:53:00
2:53 PM,72.0,66.9,84,30.13,10.0,ESE,9.2,-,0.01,Rain,Light Rain,110,2013-07-17 19:53:00
3:53 PM,73.9,66.9,79,30.11,10.0,East,5.8,-,0.00,Rain,Light Rain,80,2013-07-17 20:53:00
4:53 PM,75.0,66.9,76,30.09,10.0,NE,6.9,-,0.00,,Mostly Cloudy,40,2013-07-17 21:53:00
5:53 PM,73.0,69.1,87,30.08,10.0,NNE,8.1,-,0.00,Rain,Light Rain,20,2013-07-17 22:53:00
6:30 PM,71.6,69.8,94,30.17,10.0,North,8.1,-,0.08,Thunderstorm,Mostly Cloudy,360,2013-07-17 23:30:00
6:45 PM,71.6,69.8,94,30.17,10.0,North,11.5,-,0.08,,Scattered Clouds,360,2013-07-17 23:45:00
6:53 PM,72.0,69.1,91,30.06,10.0,North,12.7,-,0.08,,Scattered Clouds,360,2013-07-17 23:53:00
7:53 PM,71.1,68.0,90,30.08,10.0,North,6.9,-,0.01,Rain,Light Rain,10,2013-07-18 00:53:00
8:53 PM,70.0,69.1,97,30.09,10.0,NE,9.2,-,0.00,,Scattered Clouds,40,2013-07-18 01:53:00
9:53 PM,69.1,66.9,93,30.10,10.0,NNE,6.9,-,0.00,,Mostly Cloudy,30,2013-07-18 02:53:00
10:53 PM,70.0,66.9,90,30.12,10.0,Calm,Calm,-,N/A,,Mostly Cloudy,0,2013-07-18 03:53:00
11:53 PM,70.0,68.0,93,30.12,10.0,East,4.6,-,0.01,Rain,Light Rain,80,2013-07-18 04:53:00